Regional Weather Roundup
Issued by NWS Sioux Falls, SD

Home | Current Version | Previous Version | Text Only | Print | Product List | Glossary Off
Versions: 1 2 3 4 5 6 7 8 9 10 11 12 13 14 15 16 17 18 19 20 21 22 23 24 25 26 27 28 29 30 31 32 33 34 35 36 37 38 39 40 41 42 43 44 45 46 47 48 49 50

000
ASUS43 KFSD 220610
RWRFSD

WEATHER ROUNDUP FOR SE SOUTH DAKOTA/SW MINNESOTA/NW IOWA
NATIONAL WEATHER SERVICE SIOUX FALLS SD
100 AM CDT MON MAY 22 2017

NOTE: "FAIR" INDICATES FEW OR NO CLOUDS BELOW 12,000 FEET WITH NO
SIGNIFICANT WEATHER AND OR OBSTRUCTIONS TO VISIBILITY.


SDZ038>040-050-052>070-220700-
SOUTHEAST SOUTH DAKOTA

CITY           SKY/WX    TMP DP  RH WIND       PRES   REMARKS
BROOKINGS      CLOUDY    46  42  86 NE5       29.94F
CHAMBERLAIN    CLEAR     54  46  75 W12       29.98F
6HR MIN TEMP:  54; 6HR MAX TEMP:  69;

HURON          PTCLDY    47  46  97 W5        29.92S
6HR MIN TEMP:  46; 6HR MAX TEMP:  67;

MADISON        FAIR      46  46 100 SW10      29.93F
MITCHELL       CLEAR     56  43  61 W10       29.94F
6HR MIN TEMP:  55; 6HR MAX TEMP:  66; 6HR PCP: TRACE;

SIOUX FALLS    CLEAR     53  43  68 SW7       29.94F
6HR MIN TEMP:  48; 6HR MAX TEMP:  60;

WINNER         FAIR      51  44  77 W12       30.01F
YANKTON        CLOUDY    55  42  61 S8        29.98F
$$

MNZ071-072-080-081-089-090-097-098-220700-
SOUTHWEST MINNESOTA

CITY           SKY/WX    TMP DP  RH WIND       PRES   REMARKS
FAIRMONT       CLEAR     44  41  89 SW9       29.98F
JACKSON        PTCLDY    43  41  93 CALM      29.97F
LUVERNE        CLEAR     41  37  87 S3        29.96S
MARSHALL       CLEAR     43  40  89 SW6       29.95F
6HR MIN TEMP:  42; 6HR MAX TEMP:  53;

MONTEVIDEO     CLEAR     45  43  93 NW3       29.93S
PIPESTONE      CLOUDY    45  39  81 E3        29.94S
REDWOOD FALLS  PTCLDY    46  39  76 SW7       29.93F
TRACY          CLEAR     44  42  91 SW8       29.95F
WINDOM         CLEAR     45  41  87 S3        29.96F
WORTHINGTON    CLEAR     44  41  89 CALM      29.96F
$$

IAZ001>003-012>014-020>022-031-032-NEZ013-014-SDZ071-220700-
NORTHWEST IOWA

CITY           SKY/WX    TMP DP  RH WIND       PRES   REMARKS
CHEROKEE       CLEAR     43  43  99 S5        29.99F
DENISON        CLEAR     52  43  71 S8        30.04F
ESTHERVILLE    CLEAR     42  41  96 S6        29.97F
LE MARS        PTCLDY    48  45  87 S7        29.99F
ORANGE CITY    CLEAR     48  45  87 SW13      29.97F
SHELDON        CLEAR     48  43  81 SW12        N/A
SIOUX CITY     MOCLDY    52  43  71 S3        30.00F
6HR MIN TEMP:  48; 6HR MAX TEMP:  62;

SPENCER        CLEAR     42  40  92 CALM      29.97F
6HR MIN TEMP:  42; 6HR MAX TEMP:  56;

STORM LAKE     CLEAR     48  43  81 SW12      29.99F
$$

ABBREVIATIONS USED IN REMARKS
   TC - TEMPERATURE IN CELSIUS
  WCI - WIND CHILL INDEX
   HX - HEAT INDEX
  VSB - VISIBILITY





USA.gov is the U.S. government's official web portal to all federal, state and local government web resources and services.